User: anonymous
Location: Caltech
(34.1382°N, 118.1253°W)
Time: 15:11:47
(UTC-07:00)
Language:

Cosmos 1833 Rocket - Orbit

View from above orbital plane
View from above orbital plane
View from above satellite
View from above satellite

Ground track
Ground track

The orbit data is extracted from the following two-line orbital elements,

1 17590U 87027B   14105.46030042  .00000189  00000-0  11854-3 0  6566
2 17590 071.0037 069.7862 0007270 271.8479 088.1812 14.16628336400017
Epoch (UTC): 15 April 2014 11:02:49
Eccentricity: 0.0007270
inclination: 71.0037°
perigee height: 831 km
apogee height: 842 km
right ascension of ascending node: 69.7862°
argument of perigee: 271.8479°
revolutions per day: 14.16628336
mean anomaly at epoch: 88.1812°
orbit number at epoch: 40001

The dashed part of the orbit path shows where the satellite is in the earth's shadow,  

DLR